204  
ASUS43 KIWX 190810  
RWRIWX  
 
KIWX WEATHER ROUNDUP  
NATIONAL WEATHER SERVICE NORTHERN INDIANA  
400 AM EDT TUE MAR 19 2019  
 
NOTE: "FAIR" INDICATES FEW OR NO CLOUDS BELOW 12,000 FEET WITH NO  
SIGNIFICANT WEATHER AND/OR S TO VISIBILITY
.  
 
* THESE STATIONS ARE NOT UNDER NWS QUALITY CONTROL. THEY ALSO MAY NOT  
REPORT WEATHER SUCH AS PRECIPITATION OR FOG.
 
 
INZ001>027-190900-  
NORTHERN INDIANA  
 
CITY SKY/WX TMP DP RH WIND PRES REMARKS
 
GARY* FAIR 32 28 84 CALM 30.39S  
VALPARAISO FAIR 31 24 75 SW3 30.38F  
MICHIGAN CITY* FAIR 30 23 74 CALM 30.38F  
LAPORTE* FAIR 25 23 91 CALM 30.37F  
KNOX* FAIR 28 25 86 CALM 30.38F  
SOUTH BEND FAIR 27 23 85 CALM 30.37F  
GOSHEN FAIR 27 24 89 S3 30.37F FOG  
MONTICELLO* FAIR 29 26 88 CALM 30.39S  
LOGANSPORT* FAIR 28 27 93 W7 30.39F WCI 21  
ROCHESTER* FAIR 32 28 86 CALM 30.38F  
WARSAW* FAIR 28 27 93 CALM 30.37F  
KENDALLVILLE* FAIR 29 25 85 SW3 30.37F  
AUBURN* FAIR 30 28 93 CALM 30.38F  
FORT WAYNE MOCLDY 30 27 88 SW5 30.38F WCI 25  
HUNTINGTON* FAIR 28 26 96 CALM 30.38F FOG  
PERU/GRISSOM FAIR 27 27 100 SW3 30.38F  
 

 
INZ028>050-190900-  
CENTRAL INDIANA  
 
CITY SKY/WX TMP DP RH WIND PRES REMARKS
 
LAFAYETTE FAIR 25 24 96 CALM 30.39F  
KOKOMO* FAIR 28 27 96 SW3 30.39F  
MUNCIE* FAIR 29 23 78 CALM 30.38F  
INDIANAPOLIS FAIR 31 24 75 CALM 30.39F  
 

 
MIZ043>046-050>051-056>058-064>065-071>073-077>080-190900-  
SOUTHWEST LOWER MICHIGAN  
 
CITY SKY/WX TMP DP RH WIND PRES REMARKS
 
BATTLE CREEK FAIR 24 19 81 S3 30.35F  
BENTON HARBOR FAIR 26 22 84 CALM 30.36F  
COLDWATER* FAIR 27 26 98 CALM 30.36S  
HILLSDALE* FAIR 27 22 82 CALM 30.34F  
HOLLAND FAIR 29 23 78 S3 30.35F  
GRAND RAPIDS FAIR 24 19 81 S3 30.35F  
KALAMAZOO MOCLDY 25 21 85 CALM 30.35F  
STURGIS* FAIR 29 27 91 CALM 30.35F  
THREE RIVERS* FAIR 26 23 89 CALM 30.36F  
 

 
OHZ001>008-015>018-024>025-190900-  
NORTHWEST OHIO  
 
CITY SKY/WX TMP DP RH WIND PRES REMARKS
 
WAUSEON* CLOUDY 32 32 100 SW5 30.37F WCI 27  
DEFIANCE FAIR 26 22 84 CALM 30.38F  
FINDLAY FAIR 31 23 72 S5 30.37F WCI 26  
OTTAWA* FAIR 28 25 86 CALM 30.40F  
TOLEDO EXPRESS CLOUDY 32 22 66 SW3 30.37F  
LIMA FAIR 31 23 72 SW5 30.37F WCI 26  
 

 
AND FOR LAKE MICHIGAN COASTAL AND OPEN LAKE BUOY OBSERVATIONS  
 
STATION/POSITION TEMP WIND PRES VSBY WAVE
 
AIR SEA DIR/SP/G HT/PER  
(F) (DEG/KT/KT) (MB) (MI) (FT/S)  
CALUMET HARBOR 34 240/ 3/ 4 1028.0S  
MICHIGAN CITY 35 190/ 8/ 9 N/A  
BURNS HARBOR 36 210/ 5/ 5 1029.1S  
SAINT JOSEPH 35 210/ 7/ 11 1028.8  
 

 

 
 
 
CLICK HERE TO GO TO PREVIOUS BULLETINS.

The Nexlab IN Page
The Nexlab OH Page
The Nexlab MI Page Main Text Page